This demonstration page uses our WeatherBlox Daily Observations layout. Learn more.

Left ArrowRight Arrow

44.8408, -93.29828

Hourly Observations for March 21, 2018

Temp ( °F °C ) Dew Point ( °F °C ) Humidity (%) Winds ( mph kmh ) Pressure ( in mb ) Visibility ( mi km ) Precip ( " mm )
12:53 am 00:53 Partly Cloudy 24 -4.4 22 -5.6 91 91 NNW 3 6 30.13 1020 10 16 0.00 0.00
1:53 am 01:53 Mostly Clear 24 -4.4 22 -5.6 91 91 NNE 3 6 30.13 1020 10 16 0.00 0.00
2:53 am 02:53 Mostly Clear 22 -5.6 21 -6.1 96 96 NNW 5 7 30.14 1021 10 16 0.00 0.00
3:53 am 03:53 Clear 23 -5 21 -6.1 92 92 Calm 30.13 1020 10 16 0.00 0.00
4:53 am 04:53 Partly Cloudy 22 -5.6 21 -6.1 96 96 Calm 30.14 1021 10 16 0.00 0.00
5:53 am 05:53 Cloudy 23 -5 21 -6.1 92 92 Calm 30.16 1021 10 16 0.00 0.00
6:53 am 06:53 Cloudy 24 -4.4 21 -6.1 88 88 N 3 6 30.17 1022 10 16 0.00 0.00
7:53 am 07:53 Cloudy 25 -3.9 21 -6.1 85 85 VRB 5 7 30.19 1022 10 16 0.00 0.00
8:53 am 08:53 Cloudy 26 -3.3 21 -6.1 81 81 Calm 30.19 1023 10 16 0.00 0.00
9:53 am 09:53 Cloudy 28 -2.2 23 -5 81 81 Calm 30.20 1023 10 16 0.00 0.00
10:53 am 10:53 Cloudy 29 -1.7 23 -5 78 78 Calm 30.22 1023 10 16 0.00 0.00
11:53 am 11:53 Cloudy 32 0 24 -4.4 73 73 Calm 30.22 1023 10 16 0.00 0.00
12:53 pm 12:53 Mostly Cloudy 33 0.6 23 -5 66 66 SSE 3 6 30.22 1023 10 16 0.00 0.00
1:53 pm 13:53 Mostly Cloudy 37 2.8 24 -4.4 59 59 Calm 30.22 1023 10 16 0.00 0.00
2:53 pm 14:53 Cloudy 37 2.8 23 -5 57 57 SW 5 7 30.22 1023 10 16 0.00 0.00
3:53 pm 15:53 Cloudy 37 2.8 25 -3.9 62 62 WNW 6 9 30.22 1023 10 16 0.00 0.00
4:53 pm 16:53 Cloudy 37 2.8 24 -4.4 59 59 Calm 30.22 1023 10 16 0.00 0.00
5:53 pm 17:53 Mostly Cloudy 38 3.3 26 -3.3 62 62 WNW 7 11 30.23 1024 10 16 0.00 0.00
6:53 pm 18:53 Mostly Cloudy 37 2.8 25 -3.9 62 62 W 6 9 30.25 1024 10 16 0.00 0.00
7:53 pm 19:53 Cloudy 36 2.2 26 -3.3 67 67 W 8 13 30.26 1025 10 16 0.00 0.00
8:53 pm 20:53 Mostly Cloudy 36 2.2 26 -3.3 67 67 W 7 11 30.27 1025 10 16 0.00 0.00
9:53 pm 21:53 Cloudy 35 1.7 26 -3.3 70 70 W 5 7 30.29 1026 10 16 0.00 0.00
10:53 pm 22:53 Cloudy 35 1.7 25 -3.9 67 67 NW 3 6 30.29 1026 10 16 0.00 0.00
11:53 pm 23:53 Cloudy 35 1.7 26 -3.3 70 70 NNW 3 6 30.30 1026 10 16 0.00 0.00

Powered by AerisWeather